JRR951T LEPA-EPKT

Flight info

Callsign JRR951T
Flight time N/A
Altitude 36000
Route ISTER DCT LUNOR DCT NESUL DCT NEGAT DCT OMEDA DCT RAPUR DCT TORTU DCT OLETI DCT IBNAN DCT TAGIP DCT BRENO DCT KONIN DCT KEMES DCT ANELA M726 LONLI/N0439F370 L984 OKG DCT SOPAV DCT BAVOK
Aircraft B738/M-SDGIRWY/S

Departure

Time N/A
Airport Palma de Mallorca Airport (LEPA)

Arrival

Time 2026-04-28 21:25
Airport Katowice Wojciech Korfanty International Airport (EPKT)
Time Latitude Longitude Altitude Speed Heading
2026-04-28 19:45 42.00452 8.18339 35987 ft 457 kts 20°
2026-04-28 19:45 42.06346 8.21564 35993 ft 457 kts 20°
2026-04-28 19:46 42.12263 8.24809 35991 ft 457 kts 20°
2026-04-28 19:46 42.18151 8.28044 35991 ft 456 kts 20°
2026-04-28 19:47 42.24065 8.31299 35993 ft 456 kts 20°
2026-04-28 19:47 42.29932 8.34536 35993 ft 457 kts 20°
2026-04-28 19:48 42.35858 8.37811 35993 ft 456 kts 20°
2026-04-28 19:48 42.41752 8.41075 35993 ft 455 kts 20°
2026-04-28 19:49 42.47598 8.44319 35994 ft 455 kts 20°
2026-04-28 19:49 42.53463 8.47581 35994 ft 455 kts 19°
2026-04-28 19:50 42.62284 8.52497 35992 ft 455 kts 19°
2026-04-28 19:51 42.68121 8.55759 35994 ft 455 kts 20°
2026-04-28 19:51 42.73983 8.59041 35992 ft 455 kts 19°
2026-04-28 19:52 42.79874 8.62346 35992 ft 454 kts 19°
2026-04-28 19:52 42.85709 8.65628 35987 ft 455 kts 20°
2026-04-28 19:53 42.91570 8.68930 35992 ft 454 kts 20°
2026-04-28 19:53 42.97398 8.72221 35991 ft 454 kts 20°
2026-04-28 19:54 43.03240 8.75525 35994 ft 454 kts 20°
2026-04-28 19:54 43.09118 8.78856 35992 ft 455 kts 20°
2026-04-28 19:55 43.14934 8.82159 36000 ft 454 kts 20°
2026-04-28 19:55 43.20798 8.85499 35999 ft 454 kts 20°
2026-04-28 19:56 43.26637 8.88830 36001 ft 454 kts 20°
2026-04-28 19:56 43.32471 8.92164 36006 ft 454 kts 20°
2026-04-28 19:57 43.38363 8.95175 36003 ft 451 kts 13°
2026-04-28 19:57 43.44491 8.96742 36009 ft 448 kts
2026-04-28 19:58 43.50686 8.97507 36006 ft 446 kts
2026-04-28 19:58 43.56897 8.98126 36009 ft 446 kts
2026-04-28 19:59 43.63124 8.98792 36014 ft 447 kts
2026-04-28 19:59 43.66187 8.99632 36014 ft 452 kts 16°
2026-04-28 19:59 43.69110 9.01297 36024 ft 456 kts 22°
2026-04-28 20:00 43.73411 9.04337 36018 ft 457 kts 25°
2026-04-28 20:00 43.79011 9.08572 36023 ft 456 kts 26°
2026-04-28 20:01 43.84619 9.12788 36022 ft 457 kts 25°
2026-04-28 20:01 43.90242 9.16935 36026 ft 457 kts 24°
2026-04-28 20:02 43.95869 9.21036 36027 ft 456 kts 24°
2026-04-28 20:02 44.01501 9.25117 36029 ft 456 kts 24°
2026-04-28 20:03 44.07164 9.29216 36031 ft 456 kts 24°
2026-04-28 20:03 44.12774 9.33282 36027 ft 456 kts 24°
2026-04-28 20:04 44.18341 9.37323 36030 ft 456 kts 24°
2026-04-28 20:04 44.23998 9.41437 36028 ft 455 kts 24°
2026-04-28 20:05 44.29606 9.45524 36032 ft 455 kts 24°
2026-04-28 20:05 44.35238 9.49639 36043 ft 455 kts 24°
2026-04-28 20:06 44.40851 9.53748 36053 ft 456 kts 24°
2026-04-28 20:06 44.46486 9.57882 36064 ft 456 kts 24°
2026-04-28 20:07 44.52119 9.62026 36065 ft 455 kts 24°
2026-04-28 20:07 44.57697 9.66138 36058 ft 454 kts 24°
2026-04-28 20:08 44.63337 9.70302 36049 ft 456 kts 24°
2026-04-28 20:08 44.68935 9.74445 36040 ft 456 kts 24°
2026-04-28 20:09 44.74544 9.78607 36045 ft 455 kts 24°
2026-04-28 20:09 44.80125 9.82755 36035 ft 456 kts 24°
2026-04-28 20:10 44.85720 9.86923 36030 ft 454 kts 24°
2026-04-28 20:10 44.91312 9.91099 36025 ft 454 kts 24°
2026-04-28 20:11 44.96925 9.95300 36026 ft 454 kts 24°
2026-04-28 20:11 45.02515 9.99495 36026 ft 453 kts 24°
2026-04-28 20:12 45.08086 10.03683 36029 ft 455 kts 24°
2026-04-28 20:12 45.13688 10.07903 36039 ft 455 kts 24°
2026-04-28 20:13 45.19230 10.12087 36030 ft 455 kts 24°
2026-04-28 20:13 45.24839 10.16329 36029 ft 454 kts 24°
2026-04-28 20:14 45.30407 10.20548 36024 ft 454 kts 24°
2026-04-28 20:14 45.35966 10.24773 36029 ft 454 kts 23°
2026-04-28 20:15 45.41539 10.29017 36036 ft 454 kts 23°
2026-04-28 20:15 45.47060 10.33231 36036 ft 455 kts 23°
2026-04-28 20:16 45.52643 10.37505 36043 ft 453 kts 23°
2026-04-28 20:16 45.58206 10.41774 36057 ft 454 kts 23°
2026-04-28 20:17 45.63780 10.46062 36070 ft 452 kts 23°
2026-04-28 20:17 45.69331 10.50342 36081 ft 453 kts 23°
2026-04-28 20:18 45.74858 10.54612 36096 ft 452 kts 23°
2026-04-28 20:18 45.80419 10.58915 36102 ft 452 kts 23°
2026-04-28 20:19 45.85938 10.63196 36097 ft 451 kts 22°
2026-04-28 20:19 45.91354 10.67405 36108 ft 452 kts 24°
2026-04-28 20:20 45.96976 10.71581 36115 ft 449 kts 20°
2026-04-28 20:20 46.02658 10.75232 36123 ft 449 kts 18°
2026-04-28 20:21 46.08415 10.78818 36120 ft 448 kts 18°
2026-04-28 20:21 46.14047 10.82374 36126 ft 447 kts 18°
2026-04-28 20:22 46.19685 10.85987 36132 ft 447 kts 19°
2026-04-28 20:22 46.25373 10.89668 36138 ft 446 kts 19°
2026-04-28 20:23 46.31053 10.93363 36139 ft 447 kts 19°
2026-04-28 20:23 46.36690 10.97043 36139 ft 447 kts 19°
2026-04-28 20:24 46.42361 11.00755 36143 ft 447 kts 18°
2026-04-28 20:24 46.47987 11.04446 36146 ft 446 kts 18°
2026-04-28 20:25 46.53681 11.08188 36156 ft 445 kts 18°
2026-04-28 20:25 46.59033 11.11715 36154 ft 445 kts 18°
2026-04-28 20:26 46.64826 11.15599 36159 ft 446 kts 21°
2026-04-28 20:26 46.67443 11.17998 36155 ft 456 kts 34°
2026-04-28 20:26 46.69682 11.21259 36164 ft 464 kts 43°
2026-04-28 20:27 46.73673 11.28679 36158 ft 467 kts 48°
2026-04-28 20:27 46.77518 11.36384 36157 ft 467 kts 48°
2026-04-28 20:28 46.81359 11.43980 36156 ft 466 kts 47°
2026-04-28 20:28 46.85258 11.51530 36156 ft 467 kts 47°
2026-04-28 20:29 46.89216 11.59098 36154 ft 467 kts 46°
2026-04-28 20:29 46.93153 11.66599 36150 ft 466 kts 47°
2026-04-28 20:30 46.97089 11.74089 36150 ft 468 kts 47°
2026-04-28 20:30 47.00946 11.81440 36142 ft 466 kts 47°
2026-04-28 20:31 47.04941 11.89084 36143 ft 467 kts 47°
2026-04-28 20:31 47.08867 11.96611 36134 ft 466 kts 46°
2026-04-28 20:32 47.12818 12.04203 36139 ft 468 kts 47°
2026-04-28 20:32 47.16677 12.11645 36143 ft 469 kts 46°
2026-04-28 20:33 47.20571 12.19178 36157 ft 468 kts 46°
2026-04-28 20:33 47.24491 12.26776 36166 ft 468 kts 46°
2026-04-28 20:34 47.28416 12.34404 36157 ft 466 kts 46°
2026-04-28 20:34 47.32320 12.42006 36159 ft 466 kts 46°
2026-04-28 20:35 47.36204 12.49591 36148 ft 467 kts 46°
2026-04-28 20:35 47.40092 12.57206 36152 ft 467 kts 46°
2026-04-28 20:36 47.43996 12.64878 36152 ft 467 kts 46°
2026-04-28 20:36 47.47875 12.72517 36141 ft 469 kts 46°
2026-04-28 20:37 47.51688 12.80052 36146 ft 467 kts 47°
2026-04-28 20:37 47.55555 12.87709 36140 ft 467 kts 46°
2026-04-28 20:38 47.59444 12.95427 36139 ft 468 kts 46°
2026-04-28 20:38 47.63334 13.03169 36124 ft 468 kts 46°
2026-04-28 20:39 47.67183 13.10860 36122 ft 466 kts 46°
2026-04-28 20:39 47.71024 13.18555 36123 ft 468 kts 46°
2026-04-28 20:40 47.74923 13.26389 36114 ft 467 kts 46°
2026-04-28 20:40 47.78763 13.34128 36121 ft 467 kts 46°
2026-04-28 20:41 47.82619 13.41923 36116 ft 468 kts 46°
2026-04-28 20:41 47.86458 13.49699 36113 ft 465 kts 46°
2026-04-28 20:42 47.90304 13.57516 36098 ft 466 kts 45°
2026-04-28 20:42 47.94019 13.65083 36109 ft 465 kts 46°
2026-04-28 20:43 47.97904 13.73011 36101 ft 467 kts 46°
2026-04-28 20:43 48.01682 13.80750 36121 ft 466 kts 46°
2026-04-28 20:44 48.05474 13.88534 36137 ft 470 kts 46°
2026-04-28 20:44 48.09285 13.96391 36120 ft 466 kts 46°
2026-04-28 20:45 48.12969 14.04023 36147 ft 466 kts 46°
2026-04-28 20:45 48.16627 14.11609 36156 ft 466 kts 46°
2026-04-28 20:46 48.20411 14.19477 36163 ft 468 kts 46°
2026-04-28 20:46 48.24204 14.27386 36162 ft 467 kts 46°
2026-04-28 20:47 48.28001 14.35318 36156 ft 468 kts 46°
2026-04-28 20:47 48.31737 14.43151 36151 ft 466 kts 46°
2026-04-28 20:48 48.35543 14.51149 36151 ft 467 kts 46°
2026-04-28 20:48 48.39295 14.59061 36141 ft 465 kts 46°
2026-04-28 20:49 48.43039 14.66974 36141 ft 469 kts 47°
2026-04-28 20:49 48.46666 14.74670 36149 ft 466 kts 47°
2026-04-28 20:50 48.50391 14.82596 36143 ft 469 kts 47°
2026-04-28 20:50 48.54147 14.90615 36142 ft 468 kts 47°
2026-04-28 20:51 48.57864 14.98581 36148 ft 466 kts 47°
2026-04-28 20:51 48.61582 15.06554 36149 ft 469 kts 47°
2026-04-28 20:52 48.65292 15.14548 36158 ft 468 kts 47°
2026-04-28 20:52 48.69024 15.22608 36155 ft 467 kts 47°
2026-04-28 20:53 48.74605 15.34697 36153 ft 468 kts 47°
2026-04-28 20:53 48.78308 15.42751 36165 ft 468 kts 47°
2026-04-28 20:54 48.81987 15.50776 36171 ft 468 kts 47°
2026-04-28 20:54 48.85699 15.58899 36169 ft 468 kts 47°
2026-04-28 20:55 48.89397 15.67014 36177 ft 467 kts 48°
2026-04-28 20:55 48.92900 15.74716 36180 ft 471 kts 48°
2026-04-28 20:56 48.96703 15.83115 36185 ft 468 kts 48°
2026-04-28 20:56 49.00393 15.91290 36187 ft 469 kts 48°
2026-04-28 20:57 49.04104 15.99525 36195 ft 470 kts 49°
2026-04-28 20:57 49.07764 16.07687 36206 ft 467 kts 48°
2026-04-28 20:58 49.11400 16.15811 36211 ft 467 kts 49°
2026-04-28 20:58 49.14917 16.23697 36207 ft 466 kts 49°
2026-04-28 20:59 49.18543 16.31842 36211 ft 468 kts 49°
2026-04-28 20:59 49.22185 16.40055 36220 ft 468 kts 48°
2026-04-28 21:00 49.25826 16.48293 36220 ft 466 kts 49°
2026-04-28 21:00 49.29457 16.56526 36222 ft 467 kts 49°
2026-04-28 21:01 49.33060 16.64730 35979 ft 463 kts 48°
2026-04-28 21:01 49.34849 16.68821 35573 ft 463 kts 49°
2026-04-28 21:01 49.36648 16.72931 34990 ft 468 kts 49°
2026-04-28 21:02 49.38450 16.77040 34206 ft 473 kts 49°
2026-04-28 21:02 49.40243 16.81134 33465 ft 476 kts 49°
2026-04-28 21:02 49.42079 16.85350 33141 ft 467 kts 49°
2026-04-28 21:02 49.43851 16.89442 32636 ft 464 kts 49°
2026-04-28 21:03 49.45585 16.93447 32111 ft 462 kts 49°
2026-04-28 21:03 49.47361 16.97551 31643 ft 458 kts 49°
2026-04-28 21:03 49.49076 17.01519 31205 ft 454 kts 49°
2026-04-28 21:03 49.50808 17.05531 30635 ft 452 kts 50°
2026-04-28 21:04 49.52539 17.09543 30234 ft 445 kts 50°
2026-04-28 21:04 49.54220 17.13451 29728 ft 441 kts 50°
2026-04-28 21:04 49.55906 17.17366 29191 ft 438 kts 50°
2026-04-28 21:04 49.57556 17.21205 28746 ft 432 kts 50°
2026-04-28 21:05 49.59209 17.25055 28211 ft 430 kts 50°
2026-04-28 21:05 49.60834 17.28846 27809 ft 423 kts 50°
2026-04-28 21:05 49.62462 17.32647 27310 ft 419 kts 50°
2026-04-28 21:05 49.64043 17.36346 26811 ft 416 kts 50°
2026-04-28 21:06 49.65631 17.40062 26275 ft 413 kts 50°
2026-04-28 21:06 49.67203 17.43748 25834 ft 408 kts 50°
2026-04-28 21:06 49.68755 17.47393 25338 ft 404 kts 50°
2026-04-28 21:06 49.70281 17.50983 24854 ft 401 kts 50°
2026-04-28 21:07 49.71806 17.54574 24341 ft 398 kts 50°
2026-04-28 21:07 49.73289 17.58070 23889 ft 393 kts 50°
2026-04-28 21:07 49.74793 17.61623 23437 ft 389 kts 50°
2026-04-28 21:07 49.76231 17.65023 22931 ft 387 kts 51°
2026-04-28 21:08 49.77746 17.68608 22404 ft 384 kts 51°
2026-04-28 21:08 49.79198 17.72051 21932 ft 381 kts 51°
2026-04-28 21:08 49.80502 17.75146 21522 ft 377 kts 51°
2026-04-28 21:08 49.81925 17.78527 21034 ft 374 kts 51°
2026-04-28 21:09 49.83347 17.81911 20588 ft 371 kts 52°
2026-04-28 21:09 49.84586 17.84865 20196 ft 367 kts 51°
2026-04-28 21:09 49.85988 17.88211 19695 ft 364 kts 52°
2026-04-28 21:09 49.87354 17.91473 19205 ft 362 kts 52°
2026-04-28 21:10 49.88708 17.94712 18784 ft 357 kts 52°
2026-04-28 21:10 49.90054 17.97936 18320 ft 354 kts 52°
2026-04-28 21:10 49.91351 18.01017 17841 ft 351 kts 50°
2026-04-28 21:10 49.92835 18.04099 17365 ft 344 kts 44°
2026-04-28 21:11 49.94479 18.06653 16887 ft 337 kts 35°
2026-04-28 21:11 49.96310 18.08875 16441 ft 332 kts 31°
2026-04-28 21:11 49.98210 18.10928 15954 ft 328 kts 29°
2026-04-28 21:11 50.00100 18.12886 15533 ft 324 kts 28°
2026-04-28 21:12 50.01894 18.14743 15014 ft 323 kts 29°
2026-04-28 21:12 50.03719 18.16656 14397 ft 319 kts 29°
2026-04-28 21:12 50.05548 18.18604 13745 ft 316 kts 30°
2026-04-28 21:12 50.07344 18.20535 13108 ft 312 kts 30°
2026-04-28 21:13 50.09137 18.22471 12580 ft 305 kts 30°
2026-04-28 21:13 50.10845 18.24319 12175 ft 303 kts 30°
2026-04-28 21:13 50.12524 18.26132 11764 ft 305 kts 30°
2026-04-28 21:13 50.14283 18.28031 11350 ft 305 kts 30°
2026-04-28 21:14 50.16017 18.29908 10936 ft 302 kts 30°
2026-04-28 21:14 50.17727 18.31764 10626 ft 296 kts 31°
2026-04-28 21:14 50.19360 18.33539 10485 ft 285 kts 30°
2026-04-28 21:14 50.20970 18.35294 10398 ft 272 kts 30°
2026-04-28 21:15 50.22495 18.36953 10216 ft 264 kts 30°
2026-04-28 21:15 50.23942 18.38523 9877 ft 264 kts 30°
2026-04-28 21:15 50.25428 18.40133 9552 ft 262 kts 31°
2026-04-28 21:15 50.26955 18.41793 9217 ft 259 kts 31°
2026-04-28 21:16 50.28436 18.43406 8897 ft 257 kts 31°
2026-04-28 21:16 50.29847 18.44944 8590 ft 255 kts 31°
2026-04-28 21:16 50.31318 18.46550 8268 ft 253 kts 32°
2026-04-28 21:16 50.32724 18.48085 7962 ft 250 kts 32°
2026-04-28 21:17 50.34164 18.49660 7643 ft 248 kts 32°
2026-04-28 21:17 50.35567 18.51194 7326 ft 247 kts 32°
2026-04-28 21:17 50.36963 18.52723 7101 ft 238 kts 33°
2026-04-28 21:17 50.38292 18.54181 6914 ft 225 kts 33°
2026-04-28 21:18 50.39547 18.55558 6640 ft 217 kts 33°
2026-04-28 21:18 50.40767 18.56894 6281 ft 214 kts 33°
2026-04-28 21:18 50.41994 18.58240 5892 ft 213 kts 33°
2026-04-28 21:18 50.43183 18.59546 5724 ft 204 kts 34°
2026-04-28 21:19 50.44363 18.60843 5478 ft 204 kts 34°
2026-04-28 21:19 50.45536 18.62132 5384 ft 209 kts 34°
2026-04-28 21:19 50.46693 18.63471 5286 ft 204 kts 40°
2026-04-28 21:19 50.47504 18.65112 5144 ft 199 kts 67°
2026-04-28 21:20 50.47689 18.67375 4883 ft 200 kts 89°
2026-04-28 21:20 50.47634 18.69448 4649 ft 198 kts 88°
2026-04-28 21:20 50.47616 18.71597 4418 ft 195 kts 86°
2026-04-28 21:20 50.47623 18.73704 4234 ft 191 kts 86°
2026-04-28 21:21 50.47630 18.75797 4095 ft 191 kts 87°
2026-04-28 21:21 50.47632 18.77875 3972 ft 190 kts 87°
2026-04-28 21:21 50.47631 18.79952 3816 ft 191 kts 87°
2026-04-28 21:21 50.47630 18.82008 3646 ft 189 kts 87°
2026-04-28 21:22 50.47631 18.84061 3448 ft 187 kts 88°
2026-04-28 21:22 50.47630 18.86110 3264 ft 186 kts 87°
2026-04-28 21:22 50.47629 18.88132 3104 ft 185 kts 87°
2026-04-28 21:22 50.47626 18.89454 2998 ft 180 kts 87°
2026-04-28 21:23 50.47624 18.92031 2685 ft 176 kts 87°
2026-04-28 21:23 50.47624 18.93944 2436 ft 174 kts 87°
2026-04-28 21:23 50.47621 18.95818 2218 ft 164 kts 87°
2026-04-28 21:23 50.47617 18.97507 2025 ft 152 kts 86°
2026-04-28 21:24 50.47616 18.99160 1796 ft 149 kts 86°
2026-04-28 21:24 50.47614 19.00805 1601 ft 150 kts 87°
2026-04-28 21:24 50.47610 19.02446 1417 ft 150 kts 88°
2026-04-28 21:24 50.47603 19.04088 1268 ft 149 kts 88°
2026-04-28 21:25 50.47606 19.05725 1056 ft 152 kts 88°
2026-04-28 21:25 50.47606 19.07313 988 ft 126 kts 90°
2026-04-28 21:25 50.47601 19.08357 991 ft 66 kts 89°
2026-04-28 21:25 50.47599 19.08749 993 ft 40 kts 89°
2026-04-28 21:26 50.47599 19.09172 997 ft 35 kts 90°
2026-04-28 21:26 50.47581 19.09373 999 ft 10 kts 147°
2026-04-28 21:26 50.47513 19.09390 1000 ft 10 kts 181°
2026-04-28 21:26 50.47413 19.09388 1001 ft 19 kts 180°
2026-04-28 21:27 50.47268 19.09387 1003 ft 15 kts 186°
2026-04-28 21:27 50.47230 19.09242 1002 ft 18 kts 269°
2026-04-28 21:27 50.47231 19.09007 999 ft 24 kts 270°
2026-04-28 21:27 50.47233 19.08710 995 ft 27 kts 270°
2026-04-28 21:28 50.47234 19.08407 994 ft 28 kts 270°
2026-04-28 21:28 50.47235 19.08101 992 ft 28 kts 270°
2026-04-28 21:28 50.47237 19.07798 992 ft 27 kts 271°
2026-04-28 21:28 50.47236 19.07502 991 ft 27 kts 269°
2026-04-28 21:29 50.47236 19.07214 990 ft 21 kts 270°
2026-04-28 21:29 50.47221 19.07149 990 ft 4 kts 182°
2026-04-28 21:29 50.47190 19.07149 990 ft 3 kts 180°
2026-04-28 21:29 50.47172 19.07149 990 ft 0 kts 179°